Hourly Data Report for November 01, 2018

TORONTO CITY
ONTARIO
Current Station Operator: ECCC - MSC

43°40'00.000" N
79°24'00.000" W
112.50 m
6158355
71508
XTO

Download Data

Hourly Data (November 2018)
Hourly Data Report for November 1, 2018
TIME
LST
Temp Definition
°C
Dew Point Definition
°C
Rel Hum Definition
%
Precip. Amount Definition
mm

Wind Dir Definition
10's deg

Wind Spd Definition
km/h
Visibility Definition
km
Stn Press Definition
kPa
Hmdx Definition


Wind Chill Definition


Weather Definition


00:00 6.7 4.8 88 0.0 LegendMM LegendMM   99.98     LegendNANA
01:00 6.9 3.9 81 0.0 LegendMM LegendMM   99.94     LegendNANA
02:00 6.9 4.0 82 0.0 LegendMM LegendMM   99.94     LegendNANA
03:00 7.1 4.1 82 0.0 LegendMM LegendMM   99.93     LegendNANA
04:00 7.1 4.0 81 0.0 LegendMM LegendMM   99.94     LegendNANA
05:00 7.1 4.0 81 0.0 LegendMM LegendMM   99.99     LegendNANA
06:00 7.1 3.9 80 0.0 LegendMM LegendMM   99.95     LegendNANA
07:00 8.2 4.6 79 0.0 LegendMM LegendMM   99.97     LegendNANA
08:00 8.7 4.4 75 0.0 LegendMM LegendMM   99.94     LegendNANA
09:00 8.9 4.6 74 0.0 LegendMM LegendMM   99.93     LegendNANA
10:00 7.7 5.0 83 0.0 LegendMM LegendMM   99.93     LegendNANA
11:00 7.6 5.5 87 0.6 LegendMM LegendMM   99.89     LegendNANA
12:00 7.9 6.2 89 0.5 LegendMM LegendMM   99.87     LegendNANA
13:00 7.8 6.2 90 0.8 LegendMM LegendMM   99.78     LegendNANA
14:00 7.9 6.2 89 0.6 LegendMM LegendMM   99.77     LegendNANA
15:00 7.8 5.9 88 1.2 LegendMM LegendMM   99.67     LegendNANA
16:00 7.5 5.6 88 1.9 LegendMM LegendMM   99.63     LegendNANA
17:00 7.4 5.8 89 2.6 LegendMM LegendMM   99.50     LegendNANA
18:00 7.4 5.7 89 1.4 LegendMM LegendMM   99.54     LegendNANA
19:00 7.3 5.8 90 2.1 LegendMM LegendMM   99.38     LegendNANA
20:00 7.3 5.8 91 4.6 LegendMM LegendMM   99.28     LegendNANA
21:00 6.9 5.2 89 3.6 LegendMM LegendMM   99.24     LegendNANA
22:00 6.7 4.9 89 3.1 LegendMM LegendMM   99.14     LegendNANA
23:00 6.0 4.2 89 2.8 LegendMM LegendMM   99.09     LegendNANA

Notes on Data Quality.

Legend

  • E = Estimated
  • M = Missing
  • NA = Not Available*
  • [empty] = Indicates an unobserved value
Date modified: